Starlink 30973

operational
NORAD ID: 58713 Int'l Des: 2024-002 Owner: SPXS Country: US Constellation: starlink
LEOCIRCULAR

Starlink 30973について

説明を読み込み中...

リアルタイム位置

3D地球を読み込み中...

次回通過

高度履歴

Altitude vs Time

uPlot chart will show altitude changes over time

軌道要素

1 58713U 24002J 25351.11116266 .00002075 00000-0 82234-4 0 9999
2 58713 53.1611 253.4014 0001527 91.4580 268.6595 15.30179564109376
Epoch: Dec 17, 2025 • Age: 17 hours

現在のステータス

高度 484.4 km
速度 7.62 km/s
衛星直下点 -28.26°S, 156.51°W
打ち上げ日 Jan 3, 2024
運用期間 1.9 years
タイプ internet

技術仕様

分類 Payload
質量 730.00 kg
乾燥質量 700.00 kg
総質量 730.00 kg
長さ 0.30 m
直径 4.10 m
スパン 29.00 m
形状 Box + pan
製造者 SPXS
バスタイプ Starlink V2M
フェーズステータス In Orbit
所有者/国 SPXS/US

大規模コンステレーション

Loading constellations...